www.pogodaiklimat.ru

Погода и климат >> Архив погоды >> Индия >> Мадхья-Прадеш >> Хошангабад


ПОГОДА в Хошангабаде

  • Прогноз погоды в Хошангабаде
  • Монитор погоды в Хошангабаде

АРХИВ ПОГОДЫ в Хошангабаде

Время (UTC), дата Ветер
(напр.,м/с)
 
Видим.   Явления Облачность Т
(С)
Тd
(С)
f
(%)
Тe
(С)
Тes
(С)
Комфортность P
(гПа)
Po
(гПа)
Тmin
(С)
Tmax
(С)
R
(мм)
R24
(мм)
S
(см)
06 12.09 штиль 0 2000 м слаб. дождь 10/6 750 м
[Sc Ac trans]
+24.8 +24.8 100 +35 +39 очень
душно
1005.1 971.2 7
09 12.09 ЮЗ 1 2000 м слаб. дождь 10/6 750 м
[Sc Ac trans]
+25.6 +25.3 98 +37 +40 очень
душно
1003.0 969.2 9
12 12.09 ЮЗ 1 2000 м {дождь} 10/6 750 м
[Sc Ac trans]
+26.0 +24.9 94 +37 +37 очень
душно
1002.2 968.5 +26.1 10
03 13.09 штиль 0 4000 м 10/5 750 м
[Sc Ac trans]
+23.4 +22.8 96 +33 +34 очень
душно
1004.7 970.8 +22.8 79
06 13.09 штиль 0 4000 м 10/5 750 м
[Sc Ac trans]
+24.0 +23.1 95 +32 +37 очень
душно
1004.4 970.4
09 13.09 штиль 0 4000 м слаб. морось 10/6 750 м
[Sc Ac trans]
+25.6 +25.0 96 +36 +39 очень
душно
1002.5 968.8 0.8
12 13.09 штиль 0 2000 м слаб. дождь {морось} 10/6 750 м
[Sc Ac trans]
+24.6 +24.3 98 +34 +34 очень
душно
1001.6 967.8 +26.0 4
03 14.09 ЮЗ 1 4000 м 10/5 750 м
[Sc Ac trans]
+24.4 +24.1 98 +34 +35 очень
душно
1003.9 970.0 +23.2 9
06 14.09 штиль 0 4000 м 10/5 750 м
[Sc Ac trans]
+24.6 +23.7 95 +33 +38 очень
душно
1003.7 969.8
09 14.09 ЮЗ 1 2000 м {морось} 10/5 750 м
[Sc Ac trans]
+26.0 +25.1 95 +37 +41 очень
душно
1002.1 968.4 0.4
12 14.09 ЮЗ 1 2000 м слаб. морось 10/5 750 м
[Sc Ac trans]
+26.2 +25.1 94 +38 +38 очень
душно
1001.6 968.0 +26.3 0.6
03 15.09 штиль 0 4000 м 10/5 750 м
[Sc Ac trans]
+23.6 +23.0 96 +31 +33 очень
душно
1006.3 972.3 +23.0 1
06 15.09 штиль 0 4000 м 10/5 750 м
[Sc Ac trans]
+25.4 +23.9 91 +35 +40 очень
душно
1006.2 972.4
09 15.09 ЮЗ 1 4000 м 10/5 750 м
[Sc Ac trans]
+25.8 +24.6 93 +36 +39 очень
душно
1004.0 970.2
12 15.09 штиль 0 4000 м 10/5 750 м
[Sc Ac trans]
+26.0 +25.1 95 +37 +38 очень
душно
1003.5 969.7 +26.2
03 16.09 штиль 0 4000 м 10/5 750 м
[Sc Ac trans]
+26.0 +25.7 98 +38 +40 очень
душно
1005.4 971.6 +24.6 2
06 16.09 штиль 0 4000 м 10/5 750 м
[Sc Ac trans]
+26.2 +25.7 97 +39 +43 очень
душно
1005.1 971.4
09 16.09 ЮЗ 1 4000 м 6/4 750 м
[Sc Ac trans]
+31.6 +26.6 75 +49 +57 опасность
перегрева
1001.6 968.6
12 16.09 ЮЗ 1 4000 м 10/5 750 м
[Sc Ac trans]
+27.6 +24.7 84 +39 +39 очень
душно
1001.2 967.8 +32.1
03 17.09 штиль 0 4000 м 9/4 750 м
[Sc Ac trans]
+25.6 +25.0 96 +36 +39 очень
душно
1005.3 971.5 +24.0 9
06 17.09 штиль 0 4000 м 10/5 750 м
[Sc Ac trans]
+28.2 +26.7 92 +44 +49 опасность
перегрева
1004.4 971.0
09 17.09 штиль 0 2000 м слаб. дождь 10/5 750 м
[Sc Ac trans]
+25.2 +24.3 95 +35 +39 очень
душно
1003.4 969.6 4
12 17.09 штиль 0 2000 м {дождь} 10/5 750 м
[Sc Ac trans]
+25.0 +24.1 95 +34 +35 очень
душно
1004.0 970.1 +29.1 5
03 18.09 штиль 0 2000 м слаб. дождь 10/5 750 м
[Sc Ac trans]
+25.2 +25.2 100 +36 +38 очень
душно
1007.3 973.4 +24.4 6
06 18.09 штиль 0 4000 м 10/5 750 м
[Sc Ac trans]
+27.0 +25.6 92 +40 +45 очень
душно
1007.7 973.9 2
09 18.09 СВ 1 4000 м 10/6 750 м
[Sc Ac trans]
+29.6 +26.2 82 +45 +47 опасность
перегрева
1005.2 971.8 2
12 18.09 штиль 0 4000 м 6/3 750 м
[Sc Ac trans]
+27.4 +25.7 90 +40 +41 очень
душно
1004.8 971.2 +29.7 2
03 19.09 штиль 0 4000 м 8/3 750 м
[Sc Ac trans]
+26.6 +24.9 90 +38 +41 очень
душно
1009.0 975.2 +24.4 13

 

Местоположение метеостанции Хошангабад (Мадхья-Прадеш, Индия): широта 22.77 долгота 77.77 высота над уровнем моря 302 м.

В архиве по умолчанию представлена погода в Хошангабаде за последнюю неделю. Архивные данные за месяц целиком и за предыдущие месяцы, начиная с января 2011 года, Вы можете получить, выбрав интересующий диапазон дат из раскрывающегося списка и нажав кнопку "Ввод!".


*Определитесь, кто Вы:
робот инопланетянин человек

Внимание! Время в таблицах - всемирное. Для получения местного времени необходимо прибавить поправку, которая равна 5.5 ч.

Смотрите также архив погоды в соседних городах и на ближайших метеорологических станциях:

Погода в Райсене (Мадхья-Прадеш, Индия) (61 км)
Погода в Бхопале (Мадхья-Прадеш, Индия) (71 км)
Погода в Пачмарае (Мадхья-Прадеш, Индия) (76 км)
Погода в Бетуле (Мадхья-Прадеш, Индия) (101 км)
Погода в Нарсингпуре (Мадхья-Прадеш, Индия) (146 км)
Погода в Чхиндваре (Мадхья-Прадеш, Индия) (147 км)
Погода в Сагаре (Мадхья-Прадеш, Индия) (156 км)
Погода в Шаджапуре (Мадхья-Прадеш, Индия) (166 км)
Погода в Раджгархе (Мадхья-Прадеш, Индия) (174 км)
Погода в Кхандве (Мадхья-Прадеш, Индия) (178 км)

Пояснения к столбцам:

Ветер - указаны скорость ветра в м/с - средняя за 10 мин, порывы в срок и между сроками (в фигурных скобках) и направление, откуда дует ветер: С - северный, СВ - северо-восточный, В - восточный, ЮВ - юго-восточный, Ю - южный, ЮЗ - юго-западный, З - западный, СЗ - северо-западный.
Видимость - горизонтальная дальность видимости в метрах или километрах. При видимости от 1 до 10 км при отсутствии осадков обычно наблюдается дымка, при ухудшении видимости до 1 км и менее - туман. В сухую погоду видимость может ухудшаться дымом, пылью или мглою.
Явления - указаны атмосферные явления, наблюдавшиеся в срок или в последний час перед сроком; фигурными скобками обозначены явления, наблюдавшиеся между сроками (за 1-3 часа до срока); квадратными скобками обозначены град или гололедные отложения с указанием их диаметра в мм.
Облачность - указаны через наклонную черту общая и нижняя облачность в баллах и высота нижней границы облаков в метрах; квадратными скобками обозначены формы облаков: Ci - перистые, Cs - перисто-слоистые, Cc - перисто-кучевые, Ac - высококучевые, As - высокослоистые, Sc - слоисто-кучевые, Ns - слоисто-дождевые, Cu - кучевые, Cb - кучево-дождевые. Подробнее классификацию облаков см. в Атласе облаков (PDF).
T - Температура воздуха - температура, измеренная на высоте 2 м над землей.
Td - Температура точки росы - температура, при понижении до которой содержащийся в воздухе водяной пар достигнет насыщения.
f - Относительная влажность воздуха - влажноcть воздуха, измеренная на высоте 2 м над землей.
Te - Эффективная температура - температура, которую ощущает одетый по сезону человек в тени. Характеристика душности погоды. При расчете учитывается влияние влажности воздуха и скорости ветра на теплоощущения человека.
Tes - Эффективная температура на солнце - температура, которую ощущает человек, с поправкой на солнечный нагрев. Характеристика знойности погоды. Зависит от высоты солнца над горизонтом, облачности и скорости ветра. Ночью, в пасмурную погоду, а также при ветре 12 м/с и более поправка равна нулю.
P - Атмосферное давление - приведенное к уровню моря атмосферное давление.
Po - Атмосферное давление - измеренное на уровне метеостанции атмосферное давление.
Tmin - Минимальная температура - минимум температуры воздуха на высоте 2 м над землей.
Tmax - Максимальная температура - максимум температуры воздуха на высоте 2 м над землей.
R - Количество осадков - Количество выпавших осадков за период времени, мм. При наведении курсора мыши на число - период времени, за который выпало указанное количество осадков.
R24 - Количество осадков - Количество выпавших осадков за 24 часа, мм.
S - Снежный покров - Высота снежного покрова, см. При наведении курсора мыши на число - состояние снежного покрова и степень покрытия местности в баллах.